Home > Time Zones > World Clock > Weather > China > Hefei > Past weeks

Flag for China Weather past 2 weeks in Hefei, Anhui, China

Now
66 °F

Light rain. Mostly cloudy.


Feels Like: 66 °F
Forecast: 64 / 73 °F
Wind: 6 mph from Northeast

Location: Hefei Airport

Current Time: Sep 18, 2014 at 7:51:13 PM

Latest Report: Sep 18, 2014 at 7:00 PM


Visibility: 5 mi

Pressure: 30.04 "Hg

Humidity: 94%

Dew point: 64 °F

Location of HefeiLocation

Historic Weather in Hefei — Graph

°F

Hefei temperature yesterday

Maximum temperature yesterday: 81 °F (at 12:00 PM)
Minimum temperature yesterday: 68 °F (at 4:00 AM)
Average temperature yesterday: 73 °F

Past Weeks' High & Low Weather Summary

 TemperatureHumidityPressure
High88 °F (Sep 7, 1:00 PM)100% (Sep 4, 4:00 AM)30.07 "Hg (Sep 4, 4:00 AM)
Low63 °F (Sep 12, 2:00 PM)54% (Sep 4, 3:00 PM)29.74 "Hg (Sep 7, 3:00 PM)
Average73 °F89%29.86 "Hg
* Reported Sep 3 6:00 PM — Sep 18 6:00 PM, Hefei, Weather by CustomWeather, © 2014

Note: Actual official high and low records may vary slightly from our data, if they occured in-between our weather recording intervals... More about our weather records

Advertising

Hefei weather history for previous 24 hours

 ConditionsComfort  
Time TempWeatherWind HumidityBarometerVisibility
6:00 PM
Sep 18
66 °FLight rain. Mostly cloudy.6 mph100%30.04 "HgN/A
5:00 PM66 °FLight rain. Mostly cloudy.6 mph100%30.01 "HgN/A
4:00 PM66 °FLight rain. Mostly cloudy.6 mph100%30.01 "HgN/A
3:00 PM66 °FLight rain. Mostly cloudy.6 mph100%30.01 "Hg4 mi
2:00 PM66 °FLight rain. Mostly cloudy.6 mph100%30.04 "Hg4 mi
1:00 PM66 °FLight rain. Mostly cloudy.8 mph94%30.04 "Hg5 mi
12:00 PM66 °FLight rain. Fog.8 mph94%30.04 "Hg2 mi
11:00 AM64 °FLight rain. Fog.8 mph100%30.07 "Hg3 mi
10:00 AM64 °FLight rain. Fog.6 mph100%30.07 "Hg3 mi
9:00 AM64 °FLight rain. Mostly cloudy.8 mph100%30.07 "Hg4 mi
8:00 AM64 °FLight rain. Mostly cloudy.8 mph94%30.07 "HgN/A
7:00 AM64 °FLight rain. Mostly cloudy.8 mph94%30.07 "Hg4 mi
6:00 AM64 °FLight rain. Mostly cloudy.6 mph94%30.04 "HgN/A
5:00 AM64 °FLight rain. Mostly cloudy.10 mph94%30.01 "Hg4 mi
4:00 AM64 °FLight rain. Fog.10 mph94%30.01 "Hg3 mi
3:00 AM66 °FLight rain. Fog.10 mph94%30.01 "Hg1 mi
2:00 AM66 °FLight rain. Fog.8 mph94%30.01 "Hg1 mi
1:00 AM66 °FLight rain. Fog.8 mph100%30.01 "Hg1 mi
12:00 AM68 °FLight rain. Fog.6 mph94%30.01 "Hg1 mi
11:00 PM
Sep 17
68 °FLight rain. Fog.6 mph100%30.01 "Hg1 mi
10:00 PM70 °FLight rain. Fog.8 mph94%30.04 "Hg1 mi
9:00 PM70 °FLight rain. Fog.3 mph100%30.04 "Hg1 mi
8:00 PM72 °FLight rain. Fog.6 mph94%30.01 "Hg1 mi
7:00 PM72 °FLight rain. Fog.6 mph94%29.98 "Hg2 mi
Weather by CustomWeather, © 2014

See weather overviewHow to use our weather pages